Regional Weather Roundup
Issued by NWS Newport/Morehead, NC

Current Version | Previous Version | Graphics & Text | Print | Product List | Glossary Off
Versions: 1 2 3 4 5 6 7 8 9 10 11 12 13 14 15 16 17 18 19 20 21 22 23 24 25 26 27 28 29 30 31 32 33 34 35 36 37 38 39 40 41 42 43 44 45 46 47 48 49 50

000
ASUS42 KMHX 261125
RWRMHX
WEATHER ROUNDUP FOR EASTERN NORTH CAROLINA
NATIONAL WEATHER SERVICE NEWPORT/MOREHEAD CITY NC
700 AM EDT THU MAY 26 2016

NOTE: "FAIR" INDICATES FEW OR NO CLOUDS BELOW 12,000 FEET
WITH NO SIGNIFICANT WEATHER AND/OR OBSTRUCTIONS TO VISIBILITY

NCZ015>017-031-032-045>047-102-103-261200-
NORTH COAST

CITY           SKY/WX    TMP DP  RH WIND       PRES   REMARKS
EDENTON        CLOUDY    69  67  92 SW9       30.20R
ELIZABETH CITY MOSUNNY   69  64  84 SW9       30.20R
KITTY HAWK     CLOUDY    70  65  86 SW3       30.20R
MANTEO         NOT AVBL

$$

NCZ045>047-081-094-103-104-261200-
CENTRAL COAST

CITY           SKY/WX    TMP DP  RH WIND       PRES   REMARKS
FRISCO         SUNNY     70  66  87 W3        30.23R

$$

NCZ095-097-098-100-101-261200-
SOUTHERN COAST

CITY           SKY/WX    TMP DP  RH WIND       PRES   REMARKS
BEAUFORT       PTSUNNY   72  69  90 MISG      30.22R
CEDAR ISLAND   NOT AVBL
JACKSONVILLE   PTSUNNY   69  66  90 CALM      30.21R
PINEY ISLAND   PTSUNNY  N/A N/A N/A S7        30.22R
WILMINGTON     PTSUNNY   69  67  93 S6        30.21R


$$

NCZ011>013-027>030-043-044-078>080-089-090>093-098-261200-
COASTAL PLAIN

CITY           SKY/WX    TMP DP  RH WIND       PRES   REMARKS
AHOSKIE        NOT AVBL
CLINTON        PTCLDY    66  66 100 CALM      30.21R FOG
ELIZABETHTOWN  PTCLDY    66  66  99 CALM      30.21R FOG
GOLDSBORO      MOSUNNY   67  67 100 SW5       30.19R
GREENVILLE     SUNNY     68  64  88 SW6       30.21R FOG
HAVELOCK       MOSUNNY   68  66  93 S3        30.23R
KENANSVILLE    MOSUNNY   67  65  94 CALM      30.23R
KINSTON        PTSUNNY   70  64  83 S6        30.21R
NEW BERN       CLOUDY    69  66  90 CALM      30.23R
RICHLANDS      CLOUDY    66  66 100 S5        30.22R FOG
ROCKY MOUNT    MOSUNNY   66  64  93 S6        30.19R
WASHINGTON     SUNNY     68  64  86 S5        30.20S
WHITEVILLE     PTCLDY    65  63  95 CALM      30.21R FOG

$$

AMZ130-135-150-152-154-156-158-170-250-252-270-ANZ085-086-088-633-658-670-261200-
MARINE OBSERVATIONS

STATION/POSITION TIME  TEMP    WIND        PRES    WAVE   SWELL
                       AIR SEA DIR/SP/G            HT/PER HT/PER
                 (UTC) (F)     (DEG/KT/KT) (MB)    (FT/S) (FT/S)
CHESAPEAKE LIGHT 1100   68     230/ 15/ 16 1022.2
64 E VA BEACH    1050   63 58  220/ 12/ 14 1022.1    3/ 8   2/ 8
DUCK             1100   71 60  220/ 10/ 12 1022.1
2 E DUCK         1011      62                N/A     2/ 9
OREGON INLET     1100   71 72  190/ 10/ 12 1022.9
13E OREGON INLT  1100      64                N/A     2/ 8   2/ 8
HATTERAS CG      1100   71 71  210/  6/  8 1023.0
DIAMOND BUOY     1050   71 69  250/  4/  4 1023.5    2/ 9   2/ 9
CAPE LOOKOUT     1100   73     210/  5/  6 1023.2
BEAUFORT LAB     1100   73 70  230/  3/  5 1022.7
30 SE NEW RVR IN 1025      73                N/A     2/ 9
27 SE WRIGHTSVLE 1108   75 73  210/  4/  8 1023.2
5 SE WRIGHTSVLE  1108   73 72  230/  4/  6 1023.9
225 S CAPE HAT   1050   75 78   80/ 10/ 14 1022.8    2/ 8   2/ 8
41 SE CHARLESTON 1050   77 76  170/  6/  8 1022.6    2/ 8   2/ 8

$$




USA.gov is the U.S. government's official web portal to all federal, state and local government web resources and services.